Weather History for KDDC - October, 2012

Change the Weather History Date:

Wednesday, October 17, 2012

  Actual Average Record
Temperature  
Mean Temperature 54 °F -  
Max Temperature 66 °F 67 °F 94 °F (1926)
Min Temperature 39 °F 43 °F 27 °F (1976)
Degree Days  
Heating Degree Days 10    
Growing Degree Days 4 (Base 50)    
Moisture  
Dew Point 31 °F    
Average Humidity 40    
Maximum Humidity 74    
Minimum Humidity 9    
Precipitation  
Precipitation 0.00 in - - ()
Sea Level Pressure  
Sea Level Pressure 29.65 in    
Wind  
Wind Speed 14 mph (NNW)    
Max Wind Speed 30 mph    
Max Gust Speed 41 mph    
Visibility 10 miles    
Events      
Averages and records for this station are not official NWS values.
T = Trace of Precipitation, MM = Missing Value Source: NWS Daily Summary

Daily Weather History Graph

Daily Weather History Graph

Search for Another Location

Airport or City:

Trip Planner

Search our weather history database for the weather conditions in past years. The results will help you decide how hot, cold, wet, or windy it might be!

Date:

Astronomy

Oct. 17, 2012 Rise Set
Actual Time 7:50 AM CDT 6:58 PM CDT
Civil Twilight 7:24 AM CDT 7:25 PM CDT
Nautical Twilight 6:53 AM CDT 7:55 PM CDT
Astronomical Twilight 6:23 AM CDT 8:26 PM CDT
Moon 10:23 AM CDT (10/17) 8:40 PM CDT (10/17)
Length of Visible Light 12h 01m
Length of Day
11h 08m
Waxing Crescent, 7% of the Moon is Illuminated
Oct 17
Waxing Crescent
Oct 21
First Quarter
Oct 29
Full
Nov 6
Last Quarter
Nov 13
New

Hourly Weather History & Observations

Time (CDT) Temp. Windchill Dew Point Humidity Pressure Visibility Wind Dir Wind Speed Gust Speed Precip Events Conditions
12:52 AM 60.1 °F - 44.1 °F 55% 29.39 in 10.0 mi South 9.2 mph - N/A   Clear
1:52 AM 57.9 °F - 44.1 °F 60% 29.36 in 10.0 mi South 9.2 mph - N/A   Clear
2:52 AM 59.0 °F - 44.1 °F 58% 29.35 in 9.0 mi SSW 5.8 mph - N/A   Clear
3:52 AM 52.0 °F - 44.1 °F 74% 29.40 in 10.0 mi NW 9.2 mph - N/A   Clear
4:52 AM 55.9 °F - 44.1 °F 64% 29.44 in 10.0 mi North 21.9 mph 34.5 mph N/A   Clear
5:52 AM 54.0 °F - 44.1 °F 69% 29.47 in 10.0 mi North 8.1 mph - N/A   Clear
6:52 AM 57.9 °F - 41.0 °F 53% 29.54 in 10.0 mi NNW 19.6 mph 28.8 mph N/A   Partly Cloudy
7:52 AM 57.0 °F - 43.0 °F 59% 29.57 in 10.0 mi North 23.0 mph 31.1 mph N/A   Scattered Clouds
8:52 AM 55.0 °F - 39.9 °F 57% 29.62 in 10.0 mi North 20.7 mph 28.8 mph N/A   Partly Cloudy
9:52 AM 57.0 °F - 34.0 °F 42% 29.68 in 10.0 mi North 25.3 mph 33.4 mph N/A   Clear
10:52 AM 60.1 °F - 30.9 °F 33% 29.68 in 10.0 mi North 24.2 mph 31.1 mph N/A   Clear
11:52 AM 62.1 °F - 30.0 °F 30% 29.69 in 10.0 mi NNW 21.9 mph 35.7 mph N/A   Clear
12:52 PM 64.0 °F - 27.0 °F 25% 29.71 in 10.0 mi NNW 21.9 mph 39.1 mph N/A   Clear
1:52 PM 64.9 °F - 21.9 °F 19% 29.72 in 10.0 mi NNW 23.0 mph 40.3 mph N/A   Clear
2:52 PM 64.9 °F - 21.0 °F 19% 29.72 in 10.0 mi NNW 21.9 mph 39.1 mph N/A   Clear
3:52 PM 64.0 °F - 19.0 °F 18% 29.74 in 10.0 mi NW 29.9 mph 41.4 mph N/A   Clear
4:52 PM 63.0 °F - 17.1 °F 17% 29.76 in 10.0 mi NNW 23.0 mph 35.7 mph N/A   Partly Cloudy
5:52 PM 61.0 °F - 15.1 °F 17% 29.78 in 10.0 mi NNW 17.3 mph 32.2 mph N/A   Clear
6:52 PM 55.9 °F - 19.0 °F 24% 29.79 in 10.0 mi NNW 9.2 mph - N/A   Clear
7:52 PM 46.9 °F - 21.9 °F 37% 29.81 in 10.0 mi North 5.8 mph - N/A   Clear
8:52 PM 45.0 °F 42.6 °F 24.1 °F 44% 29.83 in 10.0 mi NNW 4.6 mph - N/A   Clear
9:52 PM 43.0 °F 38.8 °F 24.1 °F 47% 29.86 in 10.0 mi NW 6.9 mph - N/A   Clear
10:52 PM 43.0 °F 41.3 °F 25.0 °F 49% 29.87 in 10.0 mi WSW 3.5 mph - N/A   Clear
11:52 PM 39.9 °F 35.8 °F 26.1 °F 58% 29.90 in 10.0 mi West 5.8 mph - N/A   Clear